SL-14 DEB, 45296

Orbit data source: Space-Track

SL-14 DEB, 45296 is space debris in LEO originally from a launch on Thu, 15 Aug 1991 UTC launched from the Plesetsk Missile And Space Complex (PKMTR). Debris objects in space refer to the collection of defunct objects orbiting the Earth. Examples of debris include non-operational satellites, rocket bodies, and fragments generated from explosions, collisions, or faulty payload assembly.

Loading next visibility...
Identifier
45296, 1991-056AJ
Orbit
LEO
Country
Flag of CISCIS
Related business
Manufacturer
Unknown
Mission
Spacecraft
Bus & Motor
Unknown
Mass
Unknown
Launch date (UTC)
1991-08-15 (34 years ago)
Launch vehicle
Unknown
Launch site
Plesetsk Missile And Space Complex (PKMTR)
Object type
Payload
Rocket body
Debris
Shape & HBR
Unknown
Radar Cross Section
Small (<0.1 m²)

Expand to show TLE details & history
Last TLE update: 1 day ago

TLE from 1 day ago
0 SL-14 DEB
1 45296U 91056AJ  25241.72605440  .00010496  00000-0  91740-2 0  9992
2 45296  82.6403 244.3299 0204531  11.4055 349.1632 13.76541014274121
Epoch: 2025-08-29T17:25Z
TLE epoch observation values (Epoch: 2025-08-29T17:25:31.1Z)
Latitude
0.00002°
Longitude
4.77975°
Altitude
831.423 km
Speed
7.511 km/s
True Right ascension
16h 17m 19s
True Declination
0° 00' 00"
Sunlit
Object was in daylight at epoch
Visualization orbit readout
Latitude
Unknown
Longitude
Unknown
Altitude
Unknown
Speed
Unknown
Apparent Right ascension
Unknown
Apparent Declination
Unknown
Sunlit
N/A
Visualization observer readout
Local Sidereal Time
15:51:35
Azimuth
Unknown
Elevation
Unknown
Doppler factor
Unknown
Orbital elements
Apogee altitude
1,123.698 km
Perigee altitude
822.977 km
Semi-major axis
7,351.475 km
Eccentricity
0.02045
Inclination
82.6403°
RAAN
244.3299°
Arg. of periapsis
11.4055°
True anomaly
348.71121°
Mean anomaly
349.1632°
Eccentric anomaly
348.93836°
Mean motion
3.44335 °/min
Orbital period
104.55 mins
BSTAR
0.009174
Loading maneuver chart data...
Computing Atmospheric mass density...
Loading historical data...
Loading historical data...
Loading historical data...
Loading historical data...
Loading historical data...
Loading historical data...
Loading historical data...

Documentation

Showing up to 5 results
|